FW8514 Weather Reports


time (UTC)temp
C
wind
direction
speed
KPH
gust
KPH
rain 1hr
cm
rain 24hr
cm
rain mn
cm
humidity
%
barometer
mb
20260504151033 19 191 3.2 3.2 0.00 0.00 0.00 44 995.4
20260504150531 19 233 4.8 4.8 0.00 0.00 0.00 49 995.4
20260504140956 17 265 6.4 9.7 0.00 0.00 0.00 54 995.7
20260504140453 17 194 4.8 8.0 0.00 0.00 0.00 53 995.7
20260504130418 14 246 3.2 4.8 0.00 0.00 0.00 66 996.3
20260504110305 7 230 0.0 0.0 0.00 0.00 0.00 68 996.5
20260504100223 6 230 3.2 3.2 0.00 0.00 0.00 67 996.7
20260504081616 8 234 4.8 4.8 0.00 0.00 0.00 62 996.2
20260504081112 8 244 4.8 4.8 0.00 0.00 0.00 62 996.3
20260504080609 8 242 4.8 4.8 0.00 0.00 0.00 62 996.4
20260504080105 8 245 3.2 3.2 0.00 0.00 0.00 61 996.4
20260504050421 8 236 3.2 3.2 0.00 0.00 0.00 61 996.3
20260504045918 8 234 4.8 4.8 0.00 0.00 0.00 61 996.4
20260504045414 8 232 4.8 4.8 0.00 0.00 0.00 61 996.3
20260504044910 8 229 4.8 4.8 0.00 0.00 0.00 60 996.3
20260504044408 9 234 4.8 4.8 0.00 0.00 0.00 60 996.4
20260504043905 9 235 3.2 3.2 0.00 0.00 0.00 58 996.2
20260504043402 9 235 4.8 4.8 0.00 0.00 0.00 57 996.3
20260504042900 9 236 3.2 3.2 0.00 0.00 0.00 58 996.2
20260504042355 9 236 3.2 3.2 0.00 0.00 0.00 58 996.2
20260504041852 10 235 3.2 4.8 0.00 0.00 0.00 58 996.2
20260504041348 9 235 4.8 4.8 0.00 0.00 0.00 57 996.1
20260504040845 9 237 3.2 3.2 0.00 0.00 0.00 59 996.1
20260504040342 9 237 3.2 3.2 0.00 0.00 0.00 58 996.0
20260504035838 9 238 4.8 4.8 0.00 0.00 0.00 58 996.0
20260504035336 9 238 3.2 3.2 0.00 0.00 0.00 58 995.9
20260504034832 9 240 3.2 3.2 0.00 0.00 0.00 59 996.1
20260504034330 9 239 4.8 4.8 0.00 0.00 0.00 58 995.9
20260504033827 9 241 4.8 4.8 0.00 0.00 0.00 58 995.9
20260504033325 10 241 4.8 4.8 0.00 0.00 0.00 58 995.8
20260504032821 10 241 4.8 4.8 0.00 0.00 0.00 58 995.7
20260504032319 10 241 3.2 3.2 0.00 0.00 0.00 58 995.8
20260504031815 10 245 3.2 4.8 0.00 0.00 0.00 57 995.7
20260504031313 10 240 4.8 4.8 0.00 0.00 0.00 58 995.7
20260504030809 10 238 4.8 4.8 0.00 0.00 0.00 57 995.8
20260504030306 10 240 4.8 4.8 0.00 0.00 0.00 58 995.7
20260504025802 10 240 3.2 3.2 0.00 0.00 0.00 58 995.6
20260504025259 10 239 3.2 3.2 0.00 0.00 0.00 58 995.7
20260504024755 10 238 4.8 8.0 0.00 0.00 0.00 56 995.6
20260504024252 10 239 4.8 4.8 0.00 0.00 0.00 56 995.7
20260504023749 10 238 4.8 4.8 0.00 0.00 0.00 56 995.7
20260504023246 10 237 4.8 4.8 0.00 0.00 0.00 57 995.8
20260504022741 10 237 3.2 3.2 0.00 0.00 0.00 57 995.8
20260504022238 10 236 3.2 3.2 0.00 0.00 0.00 54 995.7
20260504021735 10 235 4.8 4.8 0.00 0.00 0.00 54 995.8
20260504021232 11 234 4.8 4.8 0.00 0.00 0.00 52 995.7
20260504020729 11 238 4.8 4.8 0.00 0.00 0.00 53 995.9
20260504020226 11 239 4.8 4.8 0.00 0.00 0.00 52 995.8
20260504015722 11 238 4.8 4.8 0.00 0.00 0.00 52 995.6
20260504015218 11 239 4.8 4.8 0.00 0.00 0.00 52 995.8
20260504014714 11 241 4.8 4.8 0.00 0.00 0.00 52 995.5
20260504014211 11 242 4.8 4.8 0.00 0.00 0.00 52 995.4
20260504013709 11 240 4.8 8.0 0.00 0.00 0.00 51 995.7
20260504013206 11 237 1.6 3.2 0.00 0.00 0.00 52 995.4
20260504012703 11 242 4.8 4.8 0.00 0.00 0.00 52 995.6
20260504012201 11 242 1.6 3.2 0.00 0.00 0.00 52 995.5
20260504011657 11 241 1.6 3.2 0.00 0.00 0.00 53 995.3
20260504011154 11 239 3.2 3.2 0.00 0.00 0.00 52 995.2
20260504010650 12 240 3.2 3.2 0.00 0.00 0.00 51 995.4
20260504010145 12 237 3.2 3.2 0.00 0.00 0.00 49 995.2
20260504005643 11 246 3.2 4.8 0.00 0.00 0.00 51 995.5
20260504005139 12 241 3.2 4.8 0.00 0.00 0.00 51 995.2
20260504004638 12 239 3.2 3.2 0.00 0.00 0.00 51 995.1
20260504004134 12 241 3.2 3.2 0.00 0.00 0.00 50 995.2
20260504003631 12 238 4.8 4.8 0.00 0.00 0.00 49 994.9
20260504003127 12 245 3.2 4.8 0.00 0.00 0.00 48 994.9
20260504002624 12 240 3.2 3.2 0.00 0.00 0.00 49 994.7
20260504002122 12 240 3.2 4.8 0.00 0.00 0.00 47 994.7
20260504001619 12 242 3.2 3.2 0.00 0.00 0.00 47 994.5
20260504001115 12 239 3.2 3.2 0.00 0.00 0.00 47 994.5
20260504000613 12 241 3.2 3.2 0.00 0.00 0.00 48 994.7
20260504000110 12 242 1.6 1.6 0.00 0.00 0.00 48 994.3
20260503235608 13 244 1.6 1.6 0.00 0.00 0.00 48 994.5
20260503235105 13 245 1.6 4.8 0.00 0.00 0.00 47 994.4
20260503234603 13 249 1.6 1.6 0.00 0.00 0.00 47 994.2
20260503234100 13 255 1.6 3.2 0.00 0.00 0.00 47 994.2
20260503233556 13 249 1.6 1.6 0.00 0.00 0.00 45 994.3
20260503233052 13 237 3.2 3.2 0.00 0.00 0.00 46 994.2
20260503232550 14 267 1.6 1.6 0.00 0.00 0.00 45 994.4
20260503232047 14 255 4.8 4.8 0.00 0.00 0.00 42 994.2
20260503231545 14 310 1.6 1.6 0.00 0.00 0.00 44 994.1
20260503231041 14 282 3.2 3.2 0.00 0.00 0.00 43 994.3
20260503230538 14 262 1.6 3.2 0.00 0.00 0.00 42 994.1
20260503230036 14 287 4.8 8.0 0.00 0.00 0.00 44 994.0
20260503225532 15 285 1.6 1.6 0.00 0.00 0.00 45 993.8
20260503225027 15 278 1.6 3.2 0.00 0.00 0.00 43 994.1
20260503224525 15 310 1.6 3.2 0.00 0.00 0.00 42 994.0
20260503224023 15 275 4.8 8.0 0.00 0.00 0.00 41 994.0
20260503223520 15 246 3.2 4.8 0.00 0.00 0.00 43 994.2
20260503223016 15 303 6.4 9.7 0.00 0.00 0.00 41 994.0
20260503222514 15 268 3.2 3.2 0.00 0.00 0.00 44 994.2
20260503222012 15 318 1.6 3.2 0.00 0.00 0.00 42 994.2
20260503221510 15 286 0.0 1.6 0.00 0.00 0.00 43 994.0
20260503221007 15 340 6.4 8.0 0.00 0.00 0.00 40 994.2
20260503220503 15 256 3.2 3.2 0.00 0.00 0.00 40 993.9
20260503220000 15 318 3.2 3.2 0.00 0.00 0.00 40 994.2
20260503215457 16 260 4.8 8.0 0.00 0.00 0.00 41 994.2
20260503214954 16 357 3.2 3.2 0.00 0.00 0.00 38 994.0
20260503214452 15 267 1.6 3.2 0.00 0.00 0.00 38 994.1
20260503213949 16 251 4.8 8.0 0.00 0.00 0.00 40 994.1
20260503213447 16 245 4.8 8.0 0.00 0.00 0.00 38 994.0
20260503212943 15 338 1.6 3.2 0.00 0.00 0.00 38 993.9
20260503212441 15 293 4.8 4.8 0.00 0.00 0.00 37 993.9
20260503211938 15 291 4.8 4.8 0.00 0.00 0.00 38 993.8
20260503211435 16 261 8.0 9.7 0.00 0.00 0.00 40 993.9
20260503210930 16 292 4.8 4.8 0.00 0.00 0.00 37 994.0
20260503210427 16 318 4.8 4.8 0.00 0.00 0.00 37 994.1
20260503205922 16 310 1.6 3.2 0.00 0.00 0.00 37 994.1
20260503205420 16 311 6.4 8.0 0.00 0.00 0.00 36 993.9
20260503204916 16 316 4.8 8.0 0.00 0.00 0.00 38 994.0
20260503204413 16 271 4.8 4.8 0.00 0.00 0.00 37 994.1
20260503203910 16 260 3.2 4.8 0.00 0.00 0.00 36 993.9
20260503203408 16 320 4.8 4.8 0.00 0.00 0.00 37 994.1
20260503202904 16 243 3.2 4.8 0.00 0.00 0.00 36 994.3
20260503202403 16 320 1.6 1.6 0.00 0.00 0.00 36 994.2
20260503201901 17 326 4.8 8.0 0.00 0.00 0.00 39 994.3
20260503201357 16 287 3.2 3.2 0.00 0.00 0.00 37 994.3
20260503200855 17 203 4.8 4.8 0.00 0.00 0.00 39 994.3
20260503200350 16 355 4.8 9.7 0.00 0.00 0.00 37 994.5
20260503195848 16 261 3.2 4.8 0.00 0.00 0.00 37 994.3
20260503195344 16 283 3.2 4.8 0.00 0.00 0.00 38 994.3
20260503194842 16 332 3.2 4.8 0.00 0.00 0.00 38 994.4
20260503194337 15 337 8.0 9.7 0.00 0.00 0.00 38 994.7
20260503193834 15 308 4.8 4.8 0.00 0.00 0.00 39 994.7
20260503193330 16 286 4.8 4.8 0.00 0.00 0.00 39 995.0
20260503192826 15 307 8.0 9.7 0.00 0.00 0.00 39 994.9
20260503192321 15 332 8.0 9.7 0.00 0.00 0.00 40 994.7
20260503191818 15 328 4.8 4.8 0.00 0.00 0.00 39 994.9
20260503191315 15 288 4.8 9.7 0.00 0.00 0.00 40 994.8
20260503190812 15 306 3.2 4.8 0.00 0.00 0.00 40 995.0
20260503190309 15 338 3.2 8.0 0.00 0.00 0.00 40 994.8
20260503185806 16 314 3.2 3.2 0.00 0.00 0.00 38 995.2
20260503185304 15 255 1.6 3.2 0.00 0.00 0.00 41 995.1
20260503184801 15 288 4.8 4.8 0.00 0.00 0.00 41 995.3
20260503184258 15 300 1.6 3.2 0.00 0.00 0.00 39 995.2
20260503183754 16 320 4.8 4.8 0.00 0.00 0.00 37 995.3
20260503183252 15 286 3.2 4.8 0.00 0.00 0.00 39 995.2
20260503182749 15 46 8.0 14.5 0.00 0.00 0.00 40 995.3
20260503182248 15 333 4.8 4.8 0.00 0.00 0.00 42 995.4
20260503181744 15 316 3.2 4.8 0.00 0.00 0.00 39 995.6
20260503181241 15 307 3.2 4.8 0.00 0.00 0.00 40 995.4
20260503180738 15 319 3.2 3.2 0.00 0.00 0.00 41 995.3
20260503180236 15 264 8.0 11.3 0.00 0.00 0.00 41 995.6
20260503175732 15 248 3.2 3.2 0.00 0.00 0.00 41 995.4
20260503175230 15 315 4.8 4.8 0.00 0.00 0.00 38 995.5
20260503174726 15 307 4.8 4.8 0.00 0.00 0.00 42 995.3
20260503174224 15 312 8.0 9.7 0.00 0.00 0.00 40 995.5
20260503173719 15 8 8.0 11.3 0.00 0.00 0.00 41 995.5
20260503173215 15 350 1.6 3.2 0.00 0.00 0.00 43 995.6
20260503172712 15 325 4.8 4.8 0.00 0.00 0.00 39 995.4
20260503172209 14 232 3.2 4.8 0.00 0.00 0.00 42 995.7
20260503171706 14 261 1.6 1.6 0.00 0.00 0.00 41 995.8
20260503171203 15 291 8.0 11.3 0.00 0.00 0.00 43 995.6
20260503170700 15 342 8.0 12.9 0.00 0.00 0.00 40 995.6
20260503170156 14 334 1.6 4.8 0.00 0.00 0.00 41 995.7